EW7703 Weather Reports


time (UTC)temp
C
wind
direction
speed
KPH
gust
KPH
rain 1hr
cm
rain 24hr
cm
rain mn
cm
humidity
%
barometer
mb
20211017150013 12 336 12.9 24.1 0.03 2.59 2.49 96 1000.8
20211017144523 12 325 14.5 24.1 0.05 2.59 2.49 96 1000.8
20211017143159 12 288 14.5 25.7 0.05 2.59 2.49 97 1000.7
20211017141648 13 298 9.7 17.7 0.03 2.57 2.46 97 1000.4
20211017140107 13 330 12.9 24.1 0.03 2.57 2.46 96 1000.2
20211017134608 13 313 6.4 16.1 0.03 2.57 2.44 97 1000.4
20211017133120 13 280 0.0 6.4 0.03 2.57 2.44 98 1000.1
20211017131645 13 345 3.2 6.4 0.03 2.57 2.44 98 1000.2
20211017130122 13 302 0.0 6.4 0.03 2.57 2.44 98 1000.6
20211017124556 13 234 1.6 4.8 0.00 2.77 2.41 98 1000.5
20211017123131 13 233 3.2 6.4 0.00 2.77 2.41 98 1000.5
20211017121616 13 22 3.2 9.7 0.03 2.77 2.41 98 999.2
20211017120054 13 330 3.2 8.0 0.05 2.77 2.41 98 1000.1
20211017114606 13 250 0.0 9.7 0.05 3.02 2.41 98 1000.5
20211017113127 13 309 3.2 4.8 0.05 3.02 2.41 97 1000.5
20211017111544 13 39 1.6 3.2 0.05 3.00 2.39 97 1000.1
20211017104548 13 28 3.2 8.0 0.30 2.97 2.36 97 999.8
20211017103047 13 27 1.6 8.0 0.58 2.97 2.36 97 1000.1
20211017101558 13 319 3.2 11.3 0.71 2.92 2.34 97 1000.6
20211017100049 13 351 3.2 9.7 0.66 2.82 2.21 97 1000.4
20211017094559 13 277 4.8 9.7 0.56 2.67 2.03 97 1001.2
20211017093042 13 346 3.2 9.7 0.48 2.41 1.78 97 1000.3
20211017091546 13 12 0.0 9.7 0.58 2.26 1.63 97 1000.5
20211017090123 13 320 3.2 11.3 0.84 2.16 1.52 97 1000.4
20211017084600 13 296 8.0 20.9 0.79 2.13 1.45 96 1000.4
20211017083053 14 314 11.3 24.1 0.58 1.93 1.27 95 1000.9
20211017081520 16 264 14.5 38.6 0.33 1.65 0.99 97 1000.5
20211017080025 16 183 22.5 40.2 0.05 1.35 0.69 97 1000.0
20211017074524 16 182 19.3 38.6 0.33 1.37 0.69 97 1000.0
20211017073014 16 171 20.9 46.7 0.61 1.37 0.69 97 1000.2
20211017043005 17 197 20.9 40.2 0.03 0.71 0.71 97 1002.8
20211017041502 17 182 16.1 41.8 0.03 0.71 0.71 97 1003.0
20211017040157 16 181 16.1 32.2 0.03 0.71 0.71 97 1003.5
20211017034638 17 138 14.5 33.8 0.03 0.71 0.71 97 1003.7
20211017033116 17 172 14.5 41.8 0.00 0.71 0.71 97 1003.9
20211017031724 17 167 20.9 41.8 0.00 0.71 0.71 97 1004.1
20211017030130 17 163 17.7 38.6 0.05 0.71 0.71 97 1004.4
20211017024632 17 163 19.3 29.0 0.05 0.71 0.71 97 1004.5
20211017023152 17 202 16.1 40.2 0.05 0.71 0.71 97 1004.8
20211017021628 17 163 16.1 33.8 0.05 0.71 0.71 96 1004.8
20211017020059 17 187 14.5 29.0 0.00 0.66 0.66 96 1005.1
20211017014719 17 182 17.7 37.0 0.00 0.66 0.66 96 1005.3
20211017013046 17 194 17.7 49.9 0.00 0.66 0.66 95 1005.4
20211017011615 17 198 14.5 30.6 0.00 0.66 0.66 95 1005.5
20211017010141 17 194 16.1 30.6 0.00 0.66 0.66 95 1005.6
20211017004632 17 152 16.1 32.2 0.00 0.66 0.66 95 1005.9
20211017003119 17 144 16.1 37.0 0.00 0.66 0.66 95 1005.8
20211017001557 17 166 20.9 45.1 0.00 0.66 0.66 95 1005.8
20211017000056 17 181 19.3 37.0 0.00 0.66 0.66 96 1005.8
20211016234821 17 191 19.3 37.0 0.00 0.66 0.66 96 1006.0
20211016233101 17 210 14.5 30.6 0.00 0.66 0.66 96 1006.2
20211016231538 17 175 20.9 46.7 0.00 0.66 0.66 97 1006.2
20211016230115 17 184 19.3 0.0 0.00 0.00 0.66 97 1006.2
20211016224559 17 185 12.9 35.4 0.00 0.66 0.66 97 1006.1
20211016223051 17 179 17.7 35.4 0.00 0.66 0.66 97 1006.1
20211016221602 17 173 12.9 33.8 0.00 0.66 0.66 97 1006.1
20211016220044 17 200 16.1 32.2 0.00 0.66 0.66 97 1006.1
20211016214615 17 155 9.7 25.7 0.00 0.66 0.66 97 1006.2
20211016213029 17 184 12.9 25.7 0.00 0.66 0.66 98 1006.3
20211016211554 17 156 17.7 33.8 0.00 0.66 0.66 98 1006.3
20211016210113 16 156 17.7 37.0 0.00 0.66 0.66 98 1006.4
20211016204532 16 190 16.1 29.0 0.00 0.66 0.66 98 1006.5
20211016203043 16 206 14.5 30.6 0.00 0.66 0.66 98 1006.6
20211016201524 16 188 16.1 37.0 0.00 0.66 0.66 98 1006.8
20211016200048 16 172 16.1 29.0 0.00 0.66 0.66 98 1006.9
20211016194525 16 176 17.7 30.6 0.00 0.66 0.66 98 1006.9
20211016193017 16 140 17.7 35.4 0.00 0.66 0.66 98 1007.1
20211016191526 16 152 16.1 29.0 0.00 0.66 0.66 98 1007.3
20211016190026 16 173 14.5 32.2 0.00 0.66 0.66 98 1007.4
20211016184525 16 163 11.3 25.7 0.00 0.66 0.66 98 1007.5
20211016183020 16 155 11.3 25.7 0.03 0.66 0.66 98 1007.3
20211016181511 16 166 12.9 30.6 0.03 0.66 0.66 98 1007.4
20211016180020 16 178 12.9 29.0 0.03 0.66 0.66 98 1007.5
20211016174513 16 145 16.1 27.4 0.03 0.71 0.66 98 1007.7
20211016173034 16 165 11.3 22.5 0.00 0.69 0.64 98 1007.8
20211016171504 16 186 11.3 24.1 0.00 0.69 0.64 98 1008.1
20211016170003 16 167 11.3 30.6 0.00 0.69 0.64 98 1008.2
20211016164510 16 163 11.3 24.1 0.00 0.69 0.64 98 1008.4
20211016163144 16 167 17.7 35.4 0.00 0.69 0.64 98 1008.6
20211016161639 16 167 17.7 32.2 0.00 0.69 0.64 98 1008.8
20211016160131 16 155 14.5 32.2 0.00 0.69 0.64 99 1009.1
20211016154614 16 191 14.5 35.4 0.00 0.69 0.64 98 1009.2
20211016153102 16 176 16.1 27.4 0.00 0.69 0.64 98 1009.2
20211016151700 16 168 16.1 30.6 0.00 0.69 0.64 98 1009.2